Time,TemperatureF,DewpointF,PressureIn,WindDirection,WindDirectionDegrees,WindSpeedMPH,WindSpeedGustMPH,Humidity,HourlyPrecipIn,Conditions,Clouds,dailyrainin,SoftwareType,DateUTC
2013-07-26 00:02:00,70.8,62.3,30.00,NW,323,0.0,3.0,74,0.00,,,0.00,WUHU216DAVISVP2,2013-07-26 05:02:00,
2013-07-26 00:07:00,70.7,62.6,30.00,NW,323,0.0,3.0,75,0.00,,,0.00,WUHU216DAVISVP2,2013-07-26 05:07:00,
2013-07-26 00:12:00,70.5,62.4,30.00,NW,323,0.0,3.0,75,0.00,,,0.00,WUHU216DAVISVP2,2013-07-26 05:12:00,
2013-07-26 00:17:00,70.2,62.4,30.00,NW,323,0.0,1.0,76,0.00,,,0.00,WUHU216DAVISVP2,2013-07-26 05:17:00,
2013-07-26 00:22:00,70.0,62.2,29.99,NW,324,0.0,2.0,76,0.00,,,0.00,WUHU216DAVISVP2,2013-07-26 05:22:00,
2013-07-26 00:27:00,69.9,62.1,29.99,NW,324,0.0,2.0,76,0.00,,,0.00,WUHU216DAVISVP2,2013-07-26 05:27:00,
2013-07-26 00:33:00,69.8,62.4,29.99,NW,324,0.0,2.0,77,0.00,,,0.00,WUHU216DAVISVP2,2013-07-26 05:33:00,
2013-07-26 00:38:00,69.6,62.2,29.99,NW,324,0.0,2.0,77,0.00,,,0.00,WUHU216DAVISVP2,2013-07-26 05:38:00,
2013-07-26 00:43:00,69.5,62.1,29.99,NW,324,0.0,1.0,77,0.00,,,0.00,WUHU216DAVISVP2,2013-07-26 05:43:00,
2013-07-26 00:48:00,69.4,62.3,29.98,NW,324,0.0,0.0,78,0.00,,,0.00,WUHU216DAVISVP2,2013-07-26 05:48:00,
2013-07-26 00:53:00,69.3,62.2,29.98,NW,324,1.0,3.0,78,0.00,,,0.00,WUHU216DAVISVP2,2013-07-26 05:53:00,
2013-07-26 00:58:00,69.3,62.2,29.98,NW,326,5.0,6.0,78,0.00,,,0.00,WUHU216DAVISVP2,2013-07-26 05:58:00,
2013-07-26 01:03:00,69.3,62.6,29.97,NNW,329,1.0,6.0,79,0.00,,,0.00,WUHU216DAVISVP2,2013-07-26 06:03:00,
2013-07-26 01:08:00,69.2,62.5,29.98,NNW,329,0.0,6.0,79,0.00,,,0.00,WUHU216DAVISVP2,2013-07-26 06:08:00,
2013-07-26 01:13:00,69.1,62.4,29.98,NNW,333,3.0,6.0,79,0.00,,,0.00,WUHU216DAVISVP2,2013-07-26 06:13:00,
2013-07-26 01:18:00,69.0,62.3,29.98,NNW,333,0.0,5.0,79,0.00,,,0.00,WUHU216DAVISVP2,2013-07-26 06:18:00,
2013-07-26 01:23:00,69.0,62.3,29.98,NNW,333,0.0,5.0,79,0.00,,,0.00,WUHU216DAVISVP2,2013-07-26 06:23:00,
2013-07-26 01:28:00,69.0,62.7,29.98,NNW,333,0.0,5.0,80,0.00,,,0.00,WUHU216DAVISVP2,2013-07-26 06:28:00,
2013-07-26 01:33:00,69.1,62.8,29.98,NNW,333,0.0,3.0,80,0.00,,,0.00,WUHU216DAVISVP2,2013-07-26 06:33:00,
2013-07-26 01:38:00,69.2,62.5,29.98,NNW,333,0.0,3.0,79,0.00,,,0.00,WUHU216DAVISVP2,2013-07-26 06:38:00,
2013-07-26 01:43:00,69.2,62.5,29.98,NNW,333,1.0,3.0,79,0.00,,,0.00,WUHU216DAVISVP2,2013-07-26 06:43:00,
2013-07-26 01:48:00,69.3,62.6,29.98,NNW,333,0.0,3.0,79,0.00,,,0.00,WUHU216DAVISVP2,2013-07-26 06:48:00,
2013-07-26 01:53:00,69.3,62.6,29.98,NNW,333,0.0,4.0,79,0.00,,,0.00,WUHU216DAVISVP2,2013-07-26 06:53:00,
2013-07-26 01:58:00,69.4,62.7,29.98,NNW,337,1.0,6.0,79,0.00,,,0.00,WUHU216DAVISVP2,2013-07-26 06:58:00,
2013-07-26 02:03:00,69.6,62.5,29.98,NNW,345,1.0,7.0,78,0.00,,,0.00,WUHU216DAVISVP2,2013-07-26 07:03:00,
2013-07-26 02:08:00,69.7,62.6,29.98,NNW,345,3.0,8.0,78,0.00,,,0.00,WUHU216DAVISVP2,2013-07-26 07:08:00,
2013-07-26 02:13:00,69.8,62.7,29.98,NNW,345,3.0,8.0,78,0.00,,,0.00,WUHU216DAVISVP2,2013-07-26 07:13:00,
2013-07-26 02:18:00,69.8,62.4,29.97,NNW,344,1.0,8.0,77,0.00,,,0.00,WUHU216DAVISVP2,2013-07-26 07:18:00,
2013-07-26 02:23:00,69.7,62.3,29.97,North,351,5.0,8.0,77,0.00,,,0.00,WUHU216DAVISVP2,2013-07-26 07:23:00,
2013-07-26 02:28:00,69.7,62.3,29.97,North,351,5.0,7.0,77,0.00,,,0.00,WUHU216DAVISVP2,2013-07-26 07:28:00,
2013-07-26 02:33:00,69.7,62.3,29.97,North,352,4.0,7.0,77,0.00,,,0.00,WUHU216DAVISVP2,2013-07-26 07:33:00,
2013-07-26 02:38:00,69.7,62.3,29.96,North,351,6.0,7.0,77,0.00,,,0.00,WUHU216DAVISVP2,2013-07-26 07:38:00,
2013-07-26 02:43:00,69.8,62.4,29.96,North,349,1.0,7.0,77,0.00,,,0.00,WUHU216DAVISVP2,2013-07-26 07:43:00,
2013-07-26 02:48:00,69.9,62.4,29.95,NNW,338,4.0,8.0,77,0.00,,,0.00,WUHU216DAVISVP2,2013-07-26 07:48:00,
2013-07-26 02:53:00,69.9,62.5,29.95,NNW,339,3.0,8.0,77,0.00,,,0.00,WUHU216DAVISVP2,2013-07-26 07:53:00,
2013-07-26 02:58:00,69.9,62.5,29.95,NNW,338,3.0,8.0,77,0.00,,,0.00,WUHU216DAVISVP2,2013-07-26 07:58:00,
2013-07-26 03:03:00,69.9,62.5,29.95,NNW,338,6.0,8.0,77,0.00,,,0.00,WUHU216DAVISVP2,2013-07-26 08:03:00,
2013-07-26 03:08:00,69.9,62.9,29.95,NNW,337,2.0,8.0,78,0.00,,,0.00,WUHU216DAVISVP2,2013-07-26 08:08:00,
2013-07-26 03:13:00,69.9,62.9,29.95,NNW,339,5.0,8.0,78,0.00,,,0.00,WUHU216DAVISVP2,2013-07-26 08:13:00,
2013-07-26 03:18:00,70.0,62.9,29.95,NNW,340,0.0,8.0,78,0.00,,,0.00,WUHU216DAVISVP2,2013-07-26 08:18:00,
2013-07-26 03:23:00,70.0,62.9,29.95,NNW,340,4.0,8.0,78,0.00,,,0.00,WUHU216DAVISVP2,2013-07-26 08:23:00,
2013-07-26 03:28:00,70.1,63.0,29.95,NNW,340,3.0,7.0,78,0.00,,,0.00,WUHU216DAVISVP2,2013-07-26 08:28:00,
2013-07-26 03:33:00,70.1,63.4,29.95,NNW,341,1.0,7.0,79,0.00,,,0.00,WUHU216DAVISVP2,2013-07-26 08:33:00,
2013-07-26 03:38:00,70.2,63.5,29.95,NNW,342,6.0,7.0,79,0.00,,,0.00,WUHU216DAVISVP2,2013-07-26 08:38:00,
2013-07-26 03:43:00,70.3,63.5,29.95,NNW,337,4.0,7.0,79,0.00,,,0.00,WUHU216DAVISVP2,2013-07-26 08:43:00,
2013-07-26 03:48:00,70.3,63.6,29.94,NNW,337,2.0,7.0,79,0.00,,,0.00,WUHU216DAVISVP2,2013-07-26 08:48:00,
2013-07-26 03:53:00,70.3,63.6,29.95,NNW,337,2.0,7.0,79,0.00,,,0.00,WUHU216DAVISVP2,2013-07-26 08:53:00,
2013-07-26 03:58:00,70.1,63.4,29.95,NNW,337,1.0,7.0,79,0.00,,,0.00,WUHU216DAVISVP2,2013-07-26 08:58:00,
2013-07-26 04:03:00,70.2,63.4,29.95,NNW,337,0.0,6.0,79,0.00,,,0.00,WUHU216DAVISVP2,2013-07-26 09:03:00,
2013-07-26 04:08:00,70.2,63.8,29.95,NNW,337,1.0,5.0,80,0.00,,,0.00,WUHU216DAVISVP2,2013-07-26 09:08:00,
2013-07-26 04:13:00,70.1,63.7,29.95,NNW,337,0.0,4.0,80,0.00,,,0.00,WUHU216DAVISVP2,2013-07-26 09:13:00,
2013-07-26 04:18:00,70.0,63.7,29.95,NNW,337,0.0,4.0,80,0.00,,,0.00,WUHU216DAVISVP2,2013-07-26 09:18:00,
2013-07-26 04:23:00,70.1,63.7,29.96,NNW,337,0.0,4.0,80,0.00,,,0.00,WUHU216DAVISVP2,2013-07-26 09:23:00,
2013-07-26 04:28:00,69.9,63.5,29.96,NNW,337,0.0,1.0,80,0.00,,,0.00,WUHU216DAVISVP2,2013-07-26 09:28:00,
2013-07-26 04:33:00,69.9,63.9,29.96,NNW,337,0.0,1.0,81,0.00,,,0.00,WUHU216DAVISVP2,2013-07-26 09:33:00,
2013-07-26 04:38:00,69.8,63.8,29.96,NNW,337,0.0,1.0,81,0.00,,,0.00,WUHU216DAVISVP2,2013-07-26 09:38:00,
2013-07-26 04:43:00,69.8,63.7,29.95,NNW,337,0.0,2.0,81,0.00,,,0.00,WUHU216DAVISVP2,2013-07-26 09:43:00,
2013-07-26 04:48:00,69.7,63.7,29.95,NNW,337,0.0,3.0,81,0.00,,,0.00,WUHU216DAVISVP2,2013-07-26 09:48:00,
2013-07-26 04:53:00,69.7,64.0,29.95,NNW,337,1.0,5.0,82,0.00,,,0.00,WUHU216DAVISVP2,2013-07-26 09:53:00,
2013-07-26 04:58:00,69.6,64.0,29.95,NNW,337,1.0,5.0,82,0.00,,,0.00,WUHU216DAVISVP2,2013-07-26 09:58:00,
2013-07-26 05:03:00,69.6,63.9,29.95,NNW,337,0.0,5.0,82,0.00,,,0.00,WUHU216DAVISVP2,2013-07-26 10:03:00,
2013-07-26 05:08:00,69.5,63.8,29.96,NNW,337,1.0,5.0,82,0.00,,,0.00,WUHU216DAVISVP2,2013-07-26 10:08:00,
2013-07-26 05:13:00,69.4,64.1,29.96,NNW,337,0.0,5.0,83,0.00,,,0.00,WUHU216DAVISVP2,2013-07-26 10:13:00,
2013-07-26 05:18:00,69.3,63.9,29.96,NNW,337,0.0,5.0,83,0.00,,,0.00,WUHU216DAVISVP2,2013-07-26 10:18:00,
2013-07-26 05:23:00,69.3,64.0,29.96,NNW,337,0.0,4.0,83,0.00,,,0.00,WUHU216DAVISVP2,2013-07-26 10:23:00,
2013-07-26 05:28:00,69.2,63.9,29.97,NNW,337,0.0,4.0,83,0.00,,,0.00,WUHU216DAVISVP2,2013-07-26 10:28:00,
2013-07-26 05:33:00,69.2,64.2,29.97,NNW,337,0.0,5.0,84,0.00,,,0.00,WUHU216DAVISVP2,2013-07-26 10:33:00,
2013-07-26 05:38:00,69.1,64.1,29.97,NNW,337,4.0,5.0,84,0.00,,,0.00,WUHU216DAVISVP2,2013-07-26 10:38:00,
2013-07-26 05:43:00,69.1,64.4,29.97,NNW,337,4.0,5.0,85,0.00,,,0.00,WUHU216DAVISVP2,2013-07-26 10:43:00,
2013-07-26 05:48:00,69.0,64.3,29.97,NNW,337,4.0,5.0,85,0.00,,,0.00,WUHU216DAVISVP2,2013-07-26 10:48:00,
2013-07-26 05:53:00,68.9,64.5,29.97,NNW,337,0.0,5.0,86,0.00,,,0.00,WUHU216DAVISVP2,2013-07-26 10:53:00,
2013-07-26 05:58:00,68.8,64.8,29.97,NNW,337,0.0,5.0,87,0.00,,,0.00,WUHU216DAVISVP2,2013-07-26 10:58:00,
2013-07-26 06:03:00,68.7,64.6,29.96,NNW,337,0.0,4.0,87,0.00,,,0.00,WUHU216DAVISVP2,2013-07-26 11:03:00,
2013-07-26 06:08:00,68.6,64.6,29.96,NNW,337,1.0,3.0,87,0.00,,,0.00,WUHU216DAVISVP2,2013-07-26 11:08:00,
2013-07-26 06:13:00,68.5,64.5,29.96,NNW,337,1.0,4.0,87,0.00,,,0.00,WUHU216DAVISVP2,2013-07-26 11:13:00,
2013-07-26 06:18:00,68.5,64.4,29.96,NNW,337,0.0,4.0,87,0.00,,,0.00,WUHU216DAVISVP2,2013-07-26 11:18:00,
2013-07-26 06:23:00,68.4,64.7,29.96,NNW,337,0.0,4.0,88,0.00,,,0.00,WUHU216DAVISVP2,2013-07-26 11:23:00,
2013-07-26 06:28:00,68.3,64.6,29.95,NNW,337,4.0,4.0,88,0.00,,,0.00,WUHU216DAVISVP2,2013-07-26 11:28:00,
2013-07-26 06:33:00,68.4,64.7,29.95,NNW,337,0.0,5.0,88,0.00,,,0.00,WUHU216DAVISVP2,2013-07-26 11:33:00,
2013-07-26 06:38:00,68.4,64.7,29.95,NNW,337,0.0,5.0,88,0.00,,,0.00,WUHU216DAVISVP2,2013-07-26 11:38:00,
2013-07-26 06:43:00,68.4,64.7,29.95,NNW,337,3.0,5.0,88,0.00,,,0.00,WUHU216DAVISVP2,2013-07-26 11:43:00,
2013-07-26 06:48:00,68.6,64.9,29.95,NNW,337,1.0,6.0,88,0.00,,,0.00,WUHU216DAVISVP2,2013-07-26 11:48:00,
2013-07-26 06:53:00,68.7,65.0,29.96,NNW,337,0.0,6.0,88,0.00,,,0.00,WUHU216DAVISVP2,2013-07-26 11:53:00,
2013-07-26 06:58:00,68.7,65.0,29.96,NNW,337,4.0,6.0,88,0.00,,,0.00,WUHU216DAVISVP2,2013-07-26 11:58:00,
2013-07-26 07:03:00,68.8,64.8,29.96,NNW,337,0.0,6.0,87,0.00,,,0.00,WUHU216DAVISVP2,2013-07-26 12:03:00,
2013-07-26 07:08:00,68.8,65.1,29.96,NNW,337,3.0,6.0,88,0.00,,,0.00,WUHU216DAVISVP2,2013-07-26 12:08:00,
2013-07-26 07:13:00,68.9,64.8,29.96,NNW,337,4.0,6.0,87,0.00,,,0.00,WUHU216DAVISVP2,2013-07-26 12:13:00,
2013-07-26 07:18:00,68.9,65.2,29.96,NNW,345,2.0,7.0,88,0.00,,,0.00,WUHU216DAVISVP2,2013-07-26 12:18:00,
2013-07-26 07:23:00,68.9,64.9,29.95,North,360,0.0,8.0,87,0.00,,,0.00,WUHU216DAVISVP2,2013-07-26 12:23:00,
2013-07-26 07:28:00,69.0,65.3,29.95,North,349,6.0,8.0,88,0.00,,,0.00,WUHU216DAVISVP2,2013-07-26 12:28:00,
2013-07-26 07:33:00,69.0,65.3,29.95,North,360,7.0,8.0,88,0.00,,,0.00,WUHU216DAVISVP2,2013-07-26 12:33:00,
2013-07-26 07:38:00,69.0,65.3,29.94,NNW,329,3.0,10.0,88,0.00,,,0.00,WUHU216DAVISVP2,2013-07-26 12:38:00,
2013-07-26 07:43:00,69.2,65.5,29.94,NNW,343,7.0,10.0,88,0.00,,,0.00,WUHU216DAVISVP2,2013-07-26 12:43:00,
2013-07-26 07:48:00,69.3,65.6,29.94,NNW,336,7.0,10.0,88,0.00,,,0.00,WUHU216DAVISVP2,2013-07-26 12:48:00,
2013-07-26 07:54:00,69.5,65.7,29.94,NW,323,5.0,10.0,88,0.00,,,0.00,WUHU216DAVISVP2,2013-07-26 12:54:00,
2013-07-26 07:59:00,69.5,65.8,29.94,NW,323,6.0,10.0,88,0.00,,,0.00,WUHU216DAVISVP2,2013-07-26 12:59:00,
2013-07-26 08:04:00,69.4,65.7,29.94,NNW,327,3.0,10.0,88,0.00,,,0.00,WUHU216DAVISVP2,2013-07-26 13:04:00,
2013-07-26 08:09:00,69.3,65.6,29.94,NNW,330,0.0,10.0,88,0.00,,,0.00,WUHU216DAVISVP2,2013-07-26 13:09:00,
2013-07-26 08:14:00,69.1,65.3,29.96,ENE,78,2.0,12.0,88,0.00,,,0.00,WUHU216DAVISVP2,2013-07-26 13:14:00,
2013-07-26 08:19:00,68.8,65.4,29.96,East,91,3.0,12.0,89,0.00,,,0.00,WUHU216DAVISVP2,2013-07-26 13:19:00,
2013-07-26 08:24:00,68.5,65.2,29.96,East,101,0.0,12.0,89,0.00,,,0.00,WUHU216DAVISVP2,2013-07-26 13:24:00,
2013-07-26 08:29:00,68.2,65.1,29.96,East,101,1.0,12.0,90,0.00,,,0.00,WUHU216DAVISVP2,2013-07-26 13:29:00,
2013-07-26 08:34:00,67.9,65.2,29.96,North,10,3.0,5.0,91,0.01,,,0.01,WUHU216DAVISVP2,2013-07-26 13:34:00,
2013-07-26 08:39:00,67.7,64.9,29.97,North,360,1.0,6.0,91,0.01,,,0.01,WUHU216DAVISVP2,2013-07-26 13:39:00,
2013-07-26 08:44:00,67.4,64.7,29.97,North,350,4.0,8.0,91,0.01,,,0.01,WUHU216DAVISVP2,2013-07-26 13:44:00,
2013-07-26 08:49:00,67.1,64.3,29.98,NNE,25,1.0,8.0,91,0.01,,,0.01,WUHU216DAVISVP2,2013-07-26 13:49:00,
2013-07-26 08:54:00,66.9,64.2,29.99,East,92,1.0,8.0,91,0.01,,,0.01,WUHU216DAVISVP2,2013-07-26 13:54:00,
2013-07-26 08:59:00,66.8,64.3,29.99,SE,125,2.0,8.0,92,0.02,,,0.02,WUHU216DAVISVP2,2013-07-26 13:59:00,
2013-07-26 09:04:00,66.7,64.3,29.99,SE,133,2.0,5.0,92,0.05,,,0.05,WUHU216DAVISVP2,2013-07-26 14:04:00,
2013-07-26 09:09:00,66.5,64.0,29.99,SE,133,1.0,5.0,92,0.07,,,0.07,WUHU216DAVISVP2,2013-07-26 14:09:00,
2013-07-26 09:14:00,66.2,63.8,29.99,SE,133,0.0,4.0,92,0.09,,,0.09,WUHU216DAVISVP2,2013-07-26 14:14:00,
2013-07-26 09:19:00,66.1,64.0,30.00,SE,133,0.0,4.0,93,0.15,,,0.16,WUHU216DAVISVP2,2013-07-26 14:19:00,
2013-07-26 09:24:00,65.8,63.7,30.00,SE,133,0.0,3.0,93,0.26,,,0.26,WUHU216DAVISVP2,2013-07-26 14:24:00,
2013-07-26 09:29:00,65.5,63.7,29.97,WSW,245,5.0,12.0,94,0.36,,,0.36,WUHU216DAVISVP2,2013-07-26 14:29:00,
2013-07-26 09:34:00,65.4,63.6,29.98,NW,319,8.0,12.0,94,0.38,,,0.39,WUHU216DAVISVP2,2013-07-26 14:34:00,
2013-07-26 09:39:00,65.2,63.4,29.99,West,277,2.0,12.0,94,0.39,,,0.40,WUHU216DAVISVP2,2013-07-26 14:39:00,
2013-07-26 09:44:00,65.1,63.3,29.99,South,177,3.0,12.0,94,0.40,,,0.41,WUHU216DAVISVP2,2013-07-26 14:44:00,
2013-07-26 09:49:00,65.0,63.1,29.99,SW,214,1.0,9.0,94,0.40,,,0.41,WUHU216DAVISVP2,2013-07-26 14:49:00,
2013-07-26 09:54:00,64.8,63.3,29.99,SW,214,0.0,9.0,95,0.40,,,0.41,WUHU216DAVISVP2,2013-07-26 14:54:00,
2013-07-26 09:59:00,64.7,63.2,30.00,SW,214,0.0,9.0,95,0.39,,,0.41,WUHU216DAVISVP2,2013-07-26 14:59:00,
2013-07-26 10:04:00,64.7,63.2,29.99,SW,214,0.0,7.0,95,0.40,,,0.45,WUHU216DAVISVP2,2013-07-26 15:04:00,
2013-07-26 10:09:00,64.5,63.0,29.99,SW,214,0.0,5.0,95,0.40,,,0.47,WUHU216DAVISVP2,2013-07-26 15:09:00,
2013-07-26 10:14:00,64.3,62.8,29.99,SW,214,4.0,4.0,95,0.38,,,0.47,WUHU216DAVISVP2,2013-07-26 15:14:00,
2013-07-26 10:19:00,64.3,62.8,29.99,SW,214,1.0,4.0,95,0.31,,,0.47,WUHU216DAVISVP2,2013-07-26 15:19:00,
2013-07-26 10:24:00,64.2,62.7,29.99,SW,220,0.0,6.0,95,0.20,,,0.47,WUHU216DAVISVP2,2013-07-26 15:24:00,
2013-07-26 10:29:00,64.2,62.7,30.00,SW,227,1.0,6.0,95,0.10,,,0.47,WUHU216DAVISVP2,2013-07-26 15:29:00,
2013-07-26 10:34:00,64.1,62.6,30.00,SW,227,0.0,6.0,95,0.08,,,0.47,WUHU216DAVISVP2,2013-07-26 15:34:00,
2013-07-26 10:39:00,64.1,62.6,30.00,SW,227,0.0,5.0,95,0.07,,,0.47,WUHU216DAVISVP2,2013-07-26 15:39:00,
2013-07-26 10:44:00,64.1,62.6,30.00,SW,227,1.0,5.0,95,0.06,,,0.47,WUHU216DAVISVP2,2013-07-26 15:44:00,
2013-07-26 10:49:00,64.2,62.8,29.99,SW,229,2.0,4.0,95,0.06,,,0.47,WUHU216DAVISVP2,2013-07-26 15:49:00,
2013-07-26 10:54:00,64.3,62.8,29.99,WSW,245,3.0,4.0,95,0.06,,,0.47,WUHU216DAVISVP2,2013-07-26 15:54:00,
2013-07-26 10:59:00,64.4,63.2,29.99,WSW,252,1.0,5.0,96,0.06,,,0.47,WUHU216DAVISVP2,2013-07-26 15:59:00,
2013-07-26 11:04:00,64.4,62.9,29.99,WSW,252,0.0,5.0,95,0.02,,,0.47,WUHU216DAVISVP2,2013-07-26 16:04:00,
2013-07-26 11:09:00,64.4,62.9,29.99,WSW,252,1.0,5.0,95,0.00,,,0.47,WUHU216DAVISVP2,2013-07-26 16:09:00,
2013-07-26 11:14:00,64.4,62.9,30.00,WSW,252,0.0,5.0,95,0.00,,,0.47,WUHU216DAVISVP2,2013-07-26 16:14:00,
2013-07-26 11:19:00,64.4,62.9,30.00,WSW,253,1.0,5.0,95,0.00,,,0.47,WUHU216DAVISVP2,2013-07-26 16:19:00,
2013-07-26 11:24:00,64.3,62.8,29.99,WSW,253,1.0,5.0,95,0.00,,,0.47,WUHU216DAVISVP2,2013-07-26 16:24:00,
2013-07-26 11:29:00,64.2,62.7,29.99,WSW,253,1.0,4.0,95,0.00,,,0.47,WUHU216DAVISVP2,2013-07-26 16:29:00,
2013-07-26 11:34:00,64.2,62.7,29.99,WSW,254,0.0,4.0,95,0.00,,,0.47,WUHU216DAVISVP2,2013-07-26 16:34:00,
2013-07-26 11:39:00,64.3,62.8,29.99,WSW,254,2.0,4.0,95,0.00,,,0.47,WUHU216DAVISVP2,2013-07-26 16:39:00,
2013-07-26 11:44:00,64.4,62.9,30.00,NNW,335,6.0,8.0,95,0.00,,,0.47,WUHU216DAVISVP2,2013-07-26 16:44:00,
2013-07-26 11:52:00,64.3,62.8,30.00,NNW,335,0.0,8.0,95,0.00,,,0.47,WUHU216DAVISVP2,2013-07-26 16:52:00,
2013-07-26 11:57:00,64.1,62.6,30.00,NW,324,5.0,9.0,95,0.00,,,0.47,WUHU216DAVISVP2,2013-07-26 16:57:00,
2013-07-26 12:02:00,64.2,62.7,30.00,NW,322,4.0,9.0,95,0.00,,,0.47,WUHU216DAVISVP2,2013-07-26 17:02:00,
2013-07-26 12:07:00,63.9,62.4,30.00,NNW,335,5.0,9.0,95,0.00,,,0.47,WUHU216DAVISVP2,2013-07-26 17:07:00,
2013-07-26 12:12:00,63.9,62.4,30.00,NW,315,3.0,9.0,95,0.01,,,0.48,WUHU216DAVISVP2,2013-07-26 17:12:00,
2013-07-26 12:17:00,63.6,61.8,30.00,NW,322,7.0,7.0,94,0.02,,,0.49,WUHU216DAVISVP2,2013-07-26 17:17:00,
2013-07-26 12:22:00,63.2,61.4,30.00,NW,326,4.0,7.0,94,0.02,,,0.49,WUHU216DAVISVP2,2013-07-26 17:22:00,
2013-07-26 12:27:00,63.1,61.3,30.00,NNW,334,5.0,7.0,94,0.02,,,0.49,WUHU216DAVISVP2,2013-07-26 17:27:00,
2013-07-26 12:32:00,62.6,60.5,30.00,NW,323,5.0,7.0,93,0.03,,,0.50,WUHU216DAVISVP2,2013-07-26 17:32:00,
2013-07-26 12:37:00,62.2,60.2,30.00,NW,324,0.0,7.0,93,0.03,,,0.50,WUHU216DAVISVP2,2013-07-26 17:37:00,
2013-07-26 12:42:00,62.0,59.9,30.00,NW,316,1.0,7.0,93,0.03,,,0.50,WUHU216DAVISVP2,2013-07-26 17:42:00,
2013-07-26 12:47:00,61.8,59.7,30.00,NW,316,2.0,6.0,93,0.03,,,0.50,WUHU216DAVISVP2,2013-07-26 17:47:00,
2013-07-26 12:52:00,61.7,59.6,30.00,NW,316,0.0,6.0,93,0.03,,,0.50,WUHU216DAVISVP2,2013-07-26 17:52:00,
2013-07-26 12:57:00,61.5,59.7,30.00,NW,316,0.0,6.0,94,0.03,,,0.50,WUHU216DAVISVP2,2013-07-26 17:57:00,
2013-07-26 13:02:00,61.2,59.1,29.99,NW,316,0.0,3.0,93,0.03,,,0.50,WUHU216DAVISVP2,2013-07-26 18:02:00,
2013-07-26 13:07:00,61.2,59.4,29.99,NW,316,0.0,3.0,94,0.04,,,0.51,WUHU216DAVISVP2,2013-07-26 18:07:00,
2013-07-26 13:12:00,61.2,59.4,29.99,NW,316,0.0,3.0,94,0.04,,,0.52,WUHU216DAVISVP2,2013-07-26 18:12:00,
2013-07-26 13:17:00,61.2,59.4,29.99,NW,316,0.0,3.0,94,0.03,,,0.52,WUHU216DAVISVP2,2013-07-26 18:17:00,
2013-07-26 13:22:00,61.2,59.5,29.99,NW,316,0.0,3.0,94,0.03,,,0.52,WUHU216DAVISVP2,2013-07-26 18:22:00,
2013-07-26 13:27:00,61.3,59.5,29.99,NW,316,0.0,3.0,94,0.04,,,0.53,WUHU216DAVISVP2,2013-07-26 18:27:00,
2013-07-26 13:32:00,61.5,59.7,29.99,NW,316,0.0,4.0,94,0.04,,,0.55,WUHU216DAVISVP2,2013-07-26 18:32:00,
2013-07-26 13:37:00,61.5,59.7,29.99,NW,316,0.0,4.0,94,0.06,,,0.56,WUHU216DAVISVP2,2013-07-26 18:37:00,
2013-07-26 13:42:00,61.5,59.8,29.99,NW,316,0.0,4.0,94,0.07,,,0.57,WUHU216DAVISVP2,2013-07-26 18:42:00,
2013-07-26 13:47:00,61.7,60.2,29.99,NW,316,0.0,4.0,95,0.09,,,0.59,WUHU216DAVISVP2,2013-07-26 18:47:00,
2013-07-26 13:52:00,61.7,60.2,29.99,NW,316,1.0,4.0,95,0.09,,,0.59,WUHU216DAVISVP2,2013-07-26 18:52:00,
2013-07-26 13:57:00,61.8,60.3,29.98,NW,316,0.0,3.0,95,0.10,,,0.60,WUHU216DAVISVP2,2013-07-26 18:57:00,
2013-07-26 14:02:00,61.9,60.4,29.99,NW,316,0.0,3.0,95,0.11,,,0.61,WUHU216DAVISVP2,2013-07-26 19:02:00,
2013-07-26 14:07:00,62.1,60.6,29.99,NW,316,0.0,1.0,95,0.10,,,0.61,WUHU216DAVISVP2,2013-07-26 19:07:00,
2013-07-26 14:12:00,62.2,60.7,29.98,NW,316,0.0,3.0,95,0.10,,,0.62,WUHU216DAVISVP2,2013-07-26 19:12:00,
2013-07-26 14:17:00,62.4,60.9,29.99,NW,316,1.0,3.0,95,0.12,,,0.64,WUHU216DAVISVP2,2013-07-26 19:17:00,
2013-07-26 14:22:00,62.5,61.0,29.98,NW,316,0.0,3.0,95,0.13,,,0.65,WUHU216DAVISVP2,2013-07-26 19:22:00,
2013-07-26 14:27:00,62.6,61.1,29.99,NW,316,1.0,3.0,95,0.13,,,0.66,WUHU216DAVISVP2,2013-07-26 19:27:00,
2013-07-26 14:32:00,62.7,61.2,29.98,NW,316,0.0,3.0,95,0.12,,,0.67,WUHU216DAVISVP2,2013-07-26 19:32:00,
2013-07-26 14:37:00,62.9,61.4,29.98,NW,316,4.0,4.0,95,0.12,,,0.68,WUHU216DAVISVP2,2013-07-26 19:37:00,
2013-07-26 14:42:00,62.9,61.8,29.98,WNW,299,4.0,8.0,96,0.13,,,0.71,WUHU216DAVISVP2,2013-07-26 19:42:00,
2013-07-26 14:47:00,63.1,61.9,29.98,NW,308,3.0,8.0,96,0.14,,,0.73,WUHU216DAVISVP2,2013-07-26 19:47:00,
2013-07-26 14:52:00,63.3,62.1,29.98,NW,304,0.0,8.0,96,0.16,,,0.75,WUHU216DAVISVP2,2013-07-26 19:52:00,
2013-07-26 14:57:00,63.5,62.3,29.98,NW,304,0.0,8.0,96,0.16,,,0.76,WUHU216DAVISVP2,2013-07-26 19:57:00,
2013-07-26 15:02:00,63.7,62.5,29.98,NW,304,1.0,7.0,96,0.16,,,0.77,WUHU216DAVISVP2,2013-07-26 20:02:00,
2013-07-26 15:07:00,63.8,62.6,29.98,NW,308,1.0,5.0,96,0.15,,,0.77,WUHU216DAVISVP2,2013-07-26 20:07:00,
2013-07-26 15:12:00,63.9,62.7,29.98,NW,309,0.0,5.0,96,0.14,,,0.77,WUHU216DAVISVP2,2013-07-26 20:12:00,
2013-07-26 15:17:00,64.0,62.8,29.98,NW,309,0.0,5.0,96,0.13,,,0.77,WUHU216DAVISVP2,2013-07-26 20:17:00,
2013-07-26 15:22:00,64.1,62.9,29.98,NW,309,1.0,5.0,96,0.12,,,0.77,WUHU216DAVISVP2,2013-07-26 20:22:00,
2013-07-26 15:27:00,64.2,63.0,29.98,NW,309,0.0,5.0,96,0.11,,,0.77,WUHU216DAVISVP2,2013-07-26 20:27:00,
2013-07-26 15:32:00,64.4,63.2,29.98,NW,309,0.0,2.0,96,0.11,,,0.78,WUHU216DAVISVP2,2013-07-26 20:32:00,
2013-07-26 15:37:00,64.6,63.4,29.98,NW,309,0.0,4.0,96,0.11,,,0.79,WUHU216DAVISVP2,2013-07-26 20:37:00,
2013-07-26 15:42:00,64.8,63.6,29.98,NW,309,0.0,4.0,96,0.09,,,0.80,WUHU216DAVISVP2,2013-07-26 20:42:00,
2013-07-26 15:47:00,64.9,63.7,29.98,NW,309,0.0,4.0,96,0.08,,,0.81,WUHU216DAVISVP2,2013-07-26 20:47:00,
2013-07-26 15:52:00,65.1,63.9,29.98,NW,309,0.0,4.0,96,0.08,,,0.83,WUHU216DAVISVP2,2013-07-26 20:52:00,
2013-07-26 15:57:00,65.1,63.9,29.98,NW,310,1.0,4.0,96,0.08,,,0.84,WUHU216DAVISVP2,2013-07-26 20:57:00,
2013-07-26 16:02:00,65.0,63.8,29.98,NW,310,3.0,5.0,96,0.10,,,0.87,WUHU216DAVISVP2,2013-07-26 21:02:00,
2013-07-26 16:07:00,65.0,63.8,29.97,WNW,295,6.0,7.0,96,0.13,,,0.90,WUHU216DAVISVP2,2013-07-26 21:07:00,
2013-07-26 16:12:00,64.8,63.3,29.98,WNW,295,0.0,7.0,95,0.17,,,0.94,WUHU216DAVISVP2,2013-07-26 21:12:00,
2013-07-26 16:17:00,64.9,63.4,29.97,WNW,297,2.0,7.0,95,0.20,,,0.98,WUHU216DAVISVP2,2013-07-26 21:17:00,
2013-07-26 16:22:00,65.1,63.9,29.97,NW,314,3.0,7.0,96,0.23,,,1.00,WUHU216DAVISVP2,2013-07-26 21:22:00,
2013-07-26 16:28:00,65.2,64.0,29.98,NNW,334,3.0,6.0,96,0.26,,,1.03,WUHU216DAVISVP2,2013-07-26 21:28:00,
2013-07-26 16:33:00,65.3,64.1,29.98,NNW,336,2.0,9.0,96,0.26,,,1.04,WUHU216DAVISVP2,2013-07-26 21:33:00,
2013-07-26 16:38:00,65.4,64.2,29.98,North,351,0.0,9.0,96,0.26,,,1.05,WUHU216DAVISVP2,2013-07-26 21:38:00,
2013-07-26 16:43:00,65.7,64.5,29.98,North,351,0.0,9.0,96,0.26,,,1.07,WUHU216DAVISVP2,2013-07-26 21:43:00,
2013-07-26 16:48:00,65.9,64.7,29.98,North,351,0.0,9.0,96,0.28,,,1.09,WUHU216DAVISVP2,2013-07-26 21:48:00,
2013-07-26 16:53:00,65.9,64.4,29.97,NNE,15,0.0,4.0,95,0.27,,,1.10,WUHU216DAVISVP2,2013-07-26 21:53:00,
2013-07-26 16:58:00,65.9,64.7,29.97,NNE,15,0.0,4.0,96,0.27,,,1.11,WUHU216DAVISVP2,2013-07-26 21:58:00,
2013-07-26 17:03:00,65.9,64.7,29.97,North,358,1.0,5.0,96,0.24,,,1.11,WUHU216DAVISVP2,2013-07-26 22:03:00,
2013-07-26 17:08:00,66.1,64.9,29.97,NW,310,6.0,7.0,96,0.21,,,1.11,WUHU216DAVISVP2,2013-07-26 22:08:00,
2013-07-26 17:13:00,66.2,65.0,29.98,NW,310,0.0,7.0,96,0.17,,,1.11,WUHU216DAVISVP2,2013-07-26 22:13:00,
2013-07-26 17:18:00,66.4,65.2,29.98,NNW,333,1.0,7.0,96,0.13,,,1.11,WUHU216DAVISVP2,2013-07-26 22:18:00,
2013-07-26 17:23:00,66.5,65.3,29.98,NNW,334,1.0,7.0,96,0.11,,,1.11,WUHU216DAVISVP2,2013-07-26 22:23:00,
2013-07-26 17:28:00,66.8,65.6,29.98,NNW,334,0.0,5.0,96,0.08,,,1.11,WUHU216DAVISVP2,2013-07-26 22:28:00,
2013-07-26 17:33:00,67.2,65.9,29.98,NNW,335,0.0,5.0,96,0.07,,,1.11,WUHU216DAVISVP2,2013-07-26 22:33:00,
2013-07-26 17:38:00,67.2,65.7,29.98,NNW,335,0.0,6.0,95,0.06,,,1.11,WUHU216DAVISVP2,2013-07-26 22:38:00,
2013-07-26 17:43:00,67.4,65.9,29.97,NNW,337,1.0,6.0,95,0.04,,,1.11,WUHU216DAVISVP2,2013-07-26 22:43:00,
2013-07-26 17:48:00,67.6,66.4,29.97,NNW,337,0.0,6.0,96,0.02,,,1.11,WUHU216DAVISVP2,2013-07-26 22:48:00,
2013-07-26 17:53:00,68.0,66.8,29.97,NNW,337,0.0,6.0,96,0.01,,,1.11,WUHU216DAVISVP2,2013-07-26 22:53:00,
2013-07-26 17:58:00,68.2,67.0,29.98,NNW,337,0.0,4.0,96,0.00,,,1.11,WUHU216DAVISVP2,2013-07-26 22:58:00,
2013-07-26 18:03:00,68.3,67.1,29.97,NNW,337,1.0,4.0,96,0.00,,,1.11,WUHU216DAVISVP2,2013-07-26 23:03:00,
2013-07-26 18:08:00,68.1,66.6,29.97,NNW,337,1.0,4.0,95,0.00,,,1.11,WUHU216DAVISVP2,2013-07-26 23:08:00,
2013-07-26 18:13:00,68.1,66.6,29.97,NNW,337,0.0,4.0,95,0.00,,,1.11,WUHU216DAVISVP2,2013-07-26 23:13:00,
2013-07-26 18:18:00,68.1,66.5,29.97,NNW,337,0.0,4.0,95,0.00,,,1.11,WUHU216DAVISVP2,2013-07-26 23:18:00,
2013-07-26 18:23:00,68.0,66.5,29.97,NNW,337,0.0,4.0,95,0.00,,,1.11,WUHU216DAVISVP2,2013-07-26 23:23:00,
2013-07-26 18:28:00,68.1,66.6,29.97,NNW,337,0.0,4.0,95,0.00,,,1.11,WUHU216DAVISVP2,2013-07-26 23:28:00,
2013-07-26 18:32:00,68.3,66.7,29.96,NNW,337,4.0,4.0,95,0.00,,,1.11,WUHU216DAVISVP2,2013-07-26 23:32:00,
2013-07-26 18:38:00,68.2,66.7,29.96,NNW,336,3.0,5.0,95,0.01,,,1.12,WUHU216DAVISVP2,2013-07-26 23:38:00,
2013-07-26 18:43:00,68.2,66.7,29.96,NNW,334,2.0,6.0,95,0.01,,,1.12,WUHU216DAVISVP2,2013-07-26 23:43:00,
2013-07-26 18:48:00,68.0,66.5,29.96,NW,309,1.0,6.0,95,0.01,,,1.12,WUHU216DAVISVP2,2013-07-26 23:48:00,
2013-07-26 18:53:00,67.9,66.4,29.96,NW,312,4.0,6.0,95,0.01,,,1.12,WUHU216DAVISVP2,2013-07-26 23:53:00,
2013-07-26 18:58:00,67.8,66.3,29.96,NW,317,1.0,6.0,95,0.01,,,1.12,WUHU216DAVISVP2,2013-07-26 23:58:00,
2013-07-26 19:03:00,67.6,66.1,29.96,NW,320,2.0,5.0,95,0.01,,,1.12,WUHU216DAVISVP2,2013-07-27 00:03:00,
2013-07-26 19:08:00,67.6,66.1,29.95,NNW,337,4.0,8.0,95,0.01,,,1.12,WUHU216DAVISVP2,2013-07-27 00:08:00,
2013-07-26 19:12:00,67.6,66.0,29.95,NNW,342,2.0,8.0,95,0.01,,,1.12,WUHU216DAVISVP2,2013-07-27 00:12:00,
2013-07-26 19:17:00,67.4,65.9,29.96,NNW,337,2.0,8.0,95,0.01,,,1.12,WUHU216DAVISVP2,2013-07-27 00:17:00,
2013-07-26 19:22:00,67.4,65.9,29.96,NNW,339,2.0,8.0,95,0.01,,,1.12,WUHU216DAVISVP2,2013-07-27 00:22:00,
2013-07-26 19:27:00,67.4,65.8,29.95,NNW,337,0.0,7.0,95,0.01,,,1.12,WUHU216DAVISVP2,2013-07-27 00:27:00,
2013-07-26 19:32:00,67.3,65.8,29.95,NNW,337,0.0,6.0,95,0.01,,,1.12,WUHU216DAVISVP2,2013-07-27 00:32:00,
2013-07-26 19:38:00,67.3,65.8,29.95,NNW,338,1.0,6.0,95,0.00,,,1.12,WUHU216DAVISVP2,2013-07-27 00:38:00,
2013-07-26 19:43:00,67.0,65.5,29.95,NNW,338,1.0,5.0,95,0.00,,,1.12,WUHU216DAVISVP2,2013-07-27 00:43:00,
2013-07-26 19:48:00,66.9,65.4,29.95,NNW,338,0.0,4.0,95,0.00,,,1.12,WUHU216DAVISVP2,2013-07-27 00:48:00,
2013-07-26 19:53:00,66.9,65.4,29.95,NNW,338,0.0,4.0,95,0.00,,,1.12,WUHU216DAVISVP2,2013-07-27 00:53:00,
2013-07-26 19:58:00,66.8,65.3,29.95,NNW,338,0.0,4.0,95,0.00,,,1.12,WUHU216DAVISVP2,2013-07-27 00:58:00,
2013-07-26 20:03:00,66.8,65.3,29.95,NNW,338,0.0,1.0,95,0.00,,,1.12,WUHU216DAVISVP2,2013-07-27 01:03:00,
2013-07-26 20:08:00,66.8,65.3,29.95,NNW,338,0.0,0.0,95,0.00,,,1.12,WUHU216DAVISVP2,2013-07-27 01:08:00,
2013-07-26 20:12:00,66.6,65.1,29.95,NNW,338,0.0,0.0,95,0.00,,,1.12,WUHU216DAVISVP2,2013-07-27 01:12:00,
2013-07-26 20:18:00,66.6,65.1,29.95,NNW,338,0.0,0.0,95,0.00,,,1.12,WUHU216DAVISVP2,2013-07-27 01:18:00,
2013-07-26 20:22:00,66.5,65.0,29.95,NNW,338,0.0,0.0,95,0.00,,,1.12,WUHU216DAVISVP2,2013-07-27 01:22:00,
2013-07-26 20:28:00,66.3,64.8,29.95,NNW,338,0.0,0.0,95,0.00,,,1.12,WUHU216DAVISVP2,2013-07-27 01:28:00,
2013-07-26 20:33:00,66.2,64.7,29.95,NNW,338,0.0,0.0,95,0.00,,,1.12,WUHU216DAVISVP2,2013-07-27 01:33:00,
2013-07-26 20:38:00,66.1,64.6,29.95,NNW,338,0.0,0.0,95,0.00,,,1.12,WUHU216DAVISVP2,2013-07-27 01:38:00,
2013-07-26 20:43:00,65.9,64.3,29.95,NNW,338,0.0,0.0,95,0.00,,,1.12,WUHU216DAVISVP2,2013-07-27 01:43:00,
2013-07-26 20:49:00,65.7,64.2,29.95,NNW,338,0.0,0.0,95,0.00,,,1.12,WUHU216DAVISVP2,2013-07-27 01:49:00,
2013-07-26 20:50:00,65.7,64.2,29.95,NNW,338,0.0,0.0,95,0.00,,,1.12,WUHU216DAVISVP2,2013-07-27 01:50:00,
2013-07-26 20:55:00,65.7,64.5,29.95,NNW,338,0.0,0.0,96,0.00,,,1.12,WUHU216DAVISVP2,2013-07-27 01:55:00,
2013-07-26 21:00:00,65.8,64.5,29.95,NNW,338,0.0,0.0,96,0.00,,,1.12,WUHU216DAVISVP2,2013-07-27 02:00:00,
2013-07-26 21:05:00,65.7,64.5,29.96,NNW,338,0.0,0.0,96,0.00,,,1.12,WUHU216DAVISVP2,2013-07-27 02:05:00,
2013-07-26 21:10:00,65.7,64.5,29.96,NNW,338,0.0,0.0,96,0.00,,,1.12,WUHU216DAVISVP2,2013-07-27 02:10:00,
2013-07-26 21:15:00,65.7,64.5,29.95,NNW,338,0.0,0.0,96,0.00,,,1.12,WUHU216DAVISVP2,2013-07-27 02:15:00,
2013-07-26 21:20:00,65.6,64.4,29.95,NNW,338,0.0,0.0,96,0.00,,,1.12,WUHU216DAVISVP2,2013-07-27 02:20:00,
2013-07-26 21:25:00,65.6,64.4,29.95,NNW,338,0.0,0.0,96,0.00,,,1.12,WUHU216DAVISVP2,2013-07-27 02:25:00,
2013-07-26 21:30:00,65.6,64.4,29.96,NNW,338,0.0,0.0,96,0.00,,,1.12,WUHU216DAVISVP2,2013-07-27 02:30:00,
2013-07-26 21:35:00,65.5,64.3,29.95,NNW,338,0.0,0.0,96,0.00,,,1.12,WUHU216DAVISVP2,2013-07-27 02:35:00,
2013-07-26 21:40:00,65.4,64.2,29.96,NNW,338,0.0,0.0,96,0.00,,,1.12,WUHU216DAVISVP2,2013-07-27 02:40:00,
2013-07-26 21:45:00,65.5,64.3,29.96,NNW,338,0.0,0.0,96,0.00,,,1.12,WUHU216DAVISVP2,2013-07-27 02:45:00,
2013-07-26 21:50:00,65.5,64.3,29.96,NNW,338,0.0,0.0,96,0.00,,,1.12,WUHU216DAVISVP2,2013-07-27 02:50:00,
2013-07-26 21:55:00,65.6,64.4,29.95,NNW,338,0.0,1.0,96,0.00,,,1.12,WUHU216DAVISVP2,2013-07-27 02:55:00,
2013-07-26 22:00:00,65.4,64.2,29.95,NNW,338,0.0,1.0,96,0.00,,,1.12,WUHU216DAVISVP2,2013-07-27 03:00:00,
2013-07-26 22:05:00,65.4,64.2,29.95,NNW,338,0.0,3.0,96,0.00,,,1.12,WUHU216DAVISVP2,2013-07-27 03:05:00,
2013-07-26 22:10:00,65.4,64.2,29.95,NNW,338,0.0,4.0,96,0.00,,,1.12,WUHU216DAVISVP2,2013-07-27 03:10:00,
2013-07-26 22:15:00,65.4,64.2,29.95,NNW,345,0.0,7.0,96,0.00,,,1.12,WUHU216DAVISVP2,2013-07-27 03:15:00,
2013-07-26 22:20:00,65.2,64.0,29.96,NNW,345,0.0,7.0,96,0.00,,,1.12,WUHU216DAVISVP2,2013-07-27 03:20:00,
2013-07-26 22:25:00,65.2,64.0,29.95,NNW,345,0.0,7.0,96,0.00,,,1.12,WUHU216DAVISVP2,2013-07-27 03:25:00,
2013-07-26 22:30:00,65.3,64.1,29.95,NNW,345,0.0,7.0,96,0.00,,,1.12,WUHU216DAVISVP2,2013-07-27 03:30:00,
2013-07-26 22:35:00,65.2,64.0,29.96,NNW,345,0.0,1.0,96,0.00,,,1.12,WUHU216DAVISVP2,2013-07-27 03:35:00,
2013-07-26 22:40:00,65.2,64.0,29.96,NNW,345,0.0,1.0,96,0.00,,,1.12,WUHU216DAVISVP2,2013-07-27 03:40:00,
2013-07-26 22:45:00,65.0,63.5,29.96,NNW,345,0.0,1.0,95,0.00,,,1.12,WUHU216DAVISVP2,2013-07-27 03:45:00,
2013-07-26 22:50:00,64.9,63.4,29.96,NNW,345,0.0,1.0,95,0.00,,,1.12,WUHU216DAVISVP2,2013-07-27 03:50:00,
2013-07-26 22:55:00,64.8,63.3,29.96,NNW,345,0.0,1.0,95,0.00,,,1.12,WUHU216DAVISVP2,2013-07-27 03:55:00,
2013-07-26 23:00:00,64.7,63.2,29.96,NNW,345,0.0,0.0,95,0.00,,,1.12,WUHU216DAVISVP2,2013-07-27 04:00:00,
2013-07-26 23:01:00,64.7,63.2,29.96,NNW,345,0.0,0.0,95,0.00,,,1.12,WUHU216DAVISVP2,2013-07-27 04:01:00,
2013-07-26 23:02:00,64.6,63.1,29.96,NNW,345,0.0,0.0,95,0.00,,,1.12,WUHU216DAVISVP2,2013-07-27 04:02:00,
2013-07-26 23:07:00,64.4,62.9,29.96,NNW,345,0.0,0.0,95,0.00,,,1.12,WUHU216DAVISVP2,2013-07-27 04:07:00,
2013-07-26 23:12:00,64.3,62.8,29.96,NNW,345,0.0,0.0,95,0.00,,,1.12,WUHU216DAVISVP2,2013-07-27 04:12:00,
2013-07-26 23:17:00,64.0,62.6,29.96,NNW,345,0.0,0.0,95,0.00,,,1.12,WUHU216DAVISVP2,2013-07-27 04:17:00,
2013-07-26 23:22:00,63.9,62.7,29.97,NNW,345,0.0,0.0,96,0.00,,,1.12,WUHU216DAVISVP2,2013-07-27 04:22:00,
2013-07-26 23:27:00,64.0,62.8,29.97,NNW,345,0.0,0.0,96,0.00,,,1.12,WUHU216DAVISVP2,2013-07-27 04:27:00,
2013-07-26 23:32:00,63.9,62.7,29.97,NNW,345,0.0,0.0,96,0.00,,,1.12,WUHU216DAVISVP2,2013-07-27 04:32:00,
2013-07-26 23:37:00,63.9,62.7,29.97,NNW,345,0.0,0.0,96,0.00,,,1.12,WUHU216DAVISVP2,2013-07-27 04:37:00,
2013-07-26 23:42:00,64.0,62.8,29.97,NNW,345,0.0,0.0,96,0.00,,,1.12,WUHU216DAVISVP2,2013-07-27 04:42:00,
2013-07-26 23:47:00,64.0,62.8,29.97,NNW,345,0.0,0.0,96,0.00,,,1.12,WUHU216DAVISVP2,2013-07-27 04:47:00,
2013-07-26 23:52:00,64.0,62.8,29.98,NNW,345,0.0,0.0,96,0.00,,,1.12,WUHU216DAVISVP2,2013-07-27 04:52:00,
2013-07-26 23:57:00,64.0,62.8,29.98,NNW,345,0.0,0.0,96,0.00,,,1.12,WUHU216DAVISVP2,2013-07-27 04:57:00,